Simultaneous Nadir Overpasses (SNOs) Predictions

Prediction of SNOs between GOES-16 and AQUA Satellite Orbit:

Table of predicted SNOs for the next 14.0 days since TLE Epoch: 2/15/2019
Index Date Time (GOES-16) GOES-16 Lat,Lon AQUA Lat,Lon Distance(km) Time Diff (sec)
1 02/17/2019 18:23:20 -0.00, -75.20 0.73, -71.66 401.78 80
2 02/18/2019 06:44:35 0.00, -75.20 0.33, -76.82 183.93 80
3 02/20/2019 06:29:44 0.00, -75.21 -0.26, -73.86 152.74 80
4 02/20/2019 18:51:09 -0.00, -75.21 -0.82, -79.06 437.91 80
5 02/22/2019 06:17:34 -0.00, -75.22 -0.93, -70.91 490.14 80
6 02/22/2019 18:38:58 0.00, -75.22 -0.21, -76.10 100.24 80
7 02/24/2019 18:29:28 0.00, -75.24 0.46, -73.15 238.25 80
8 02/25/2019 06:50:43 -0.00, -75.25 0.68, -78.30 346.73 80
9 02/27/2019 06:38:33 0.00, -75.28 0.00, -75.35 7.72 80
10 03/01/2019 06:23:42 0.00, -75.31 -0.61, -72.39 331.97 80
11 03/01/2019 18:45:06 -0.00, -75.32 -0.50, -77.58 258.00 80




NCC Satellite Simultaneous Nadir Overpasses (SNOs) Prediction Service
